Location: Newark
(7.0858°N, 171.3717°E)
Time: 09:19:19
(UTC+00:00)

S-56A Canister/Altair - Pass Details

Date: 29 November 2020
Orbit: 633 x 2499 km, 38.9° (Epoch: 27 January)

Event Time Altitude Azimuth Distance (km) Brightness Sun altitude
Rises 15:56:20 0° 306° (NW) 2,973 - -36.6°
Reaches altitude 10° 15:58:40 10° 304° (NW) 2,010 - -36.1°
Maximum altitude 16:03:03 68° 221° (SW) 687 - -35.1°
Exits shadow 16:05:48 24° 143° (SE) 1,392 9.3 -34.4°
Drops below altitude 10° 16:07:52 10° 138° (SE) 2,206 10.5 -34.0°
Sets 16:10:32 0° 135° (SE) 3,294 11.7 -33.3°
